Wind_Speed
14 13 13 12 12 11 6 3 1 1 2 3 3 2 1 2 2 3 5 5 4 5 5 9 13 9 6 5 6 6 5 4 2 1 2 5 15 21 19 23 23 18 19 19 18 17 17 17 17 17 16 16 16 16 16 17 17 18 18 18 18 17 17 18 18 17 15 13 13 14 14 14 14 13 12 11 11 11 11 11 11 11 11 12 11 11 11 11 11 10 11 12 13 13 13 14 14
14 13 13 14 12 7 3 2 2 1 3 3 2 2 0 3 3 4 6 6 4 7 8 12 11 6 7 8 8 6 6 5 4 3 5 14 20 17 22 27 24 19 18 18 18 17 17 16 17 17 17 16 16 16 16 16 16 17 17 17 16 17 17 18 18 17 14 12 11 12 13 13 13 13 11 11 11 11 10 10 10 10 11 11 11 11 12 11 11 12 12 14 14 14 14 15 14
16 16 16 15 8 2 1 1 2 0 2 3 1 1 1 2 2 3 6 5 7 10 12 13 10 6 8 10 5 3 4 4 6 8 9 19 19 15 25 28 24 20 18 17 18 17 17 17 17 17 17 17 16 16 16 16 16 16 16 16 16 15 15 17 19 16 13 12 11 11 12 12 12 11 10 11 11 10 9 9 9 10 10 11 12 12 11 10 11 13 14 14 14 15 14 14 13
16 16 17 11 4 2 1 2 2 1 2 3 1 1 1 2 3 6 7 7 10 12 13 13 7 3 4 8 3 3 5 4 8 10 11 17 18 20 27 28 24 20 18 17 18 18 17 18 18 17 17 17 17 17 17 16 17 16 16 15 15 15 14 18 19 15 12 13 12 10 11 11 11 11 10 11 11 10 9 8 8 9 10 11 12 12 11 9 12 15 14 13 14 14 13 11 12
14 14 14 6 1 1 2 2 1 2 2 2 1 1 0 2 5 8 8 10 12 13 14 10 6 4 4 5 1 2 6 7 9 11 14 17 19 24 27 27 22 20 19 18 19 18 17 18 17 17 16 16 16 16 16 16 16 16 15 15 15 15 16 18 18 13 12 13 12 11 11 11 11 11 10 10 10 9 9 8 9 9 10 11 11 13 11 9 12 15 14 13 13 14 12 10 10
13 10 8 3 2 1 1 2 1 3 3 2 4 2 1 4 7 9 10 11 12 12 12 8 7 8 6 5 3 3 5 6 10 13 17 20 22 26 26 24 21 21 20 18 19 18 18 18 17 17 16 16 16 15 15 15 15 15 15 15 15 15 16 17 16 12 12 13 11 11 12 12 11 11 10 10 10 9 9 9 9 9 10 10 11 13 12 10 12 13 13 12 13 13 11 10 10
14 8 4 4 2 2 2 2 3 3 3 2 4 2 3 6 8 11 13 13 12 10 8 8 10 9 5 3 4 4 3 4 10 14 18 23 25 26 25 23 22 22 20 18 19 18 18 17 17 16 16 16 15 15 14 14 15 15 15 14 14 14 15 16 15 11 11 13 11 11 12 12 11 11 11 10 10 9 9 9 9 9 10 10 11 12 12 12 11 12 12 12 12 12 11 10 10
13 5 2 3 1 1 2 3 3 3 1 2 3 1 5 9 10 12 14 13 12 10 9 10 10 7 5 3 4 4 3 6 12 15 21 25 26 26 24 23 22 22 20 19 18 19 18 17 17 16 16 16 15 15 14 14 14 15 14 14 14 14 14 15 14 12 11 13 12 12 12 12 11 11 10 10 9 9 9 9 9 9 9 10 10 11 12 13 12 12 12 12 12 11 11 11 11
8 3 1 2 2 1 3 3 3 3 3 4 2 2 7 10 10 11 13 12 12 12 11 11 7 5 7 6 5 4 5 10 16 19 24 26 27 26 24 22 22 22 21 19 18 19 17 17 16 15 15 15 15 15 14 14 14 14 14 14 14 14 14 14 14 13 12 12 12 12 12 11 11 11 10 10 9 9 9 9 9 8 9 9 10 10 11 12 13 12 11 11 11 11 11 12 12
5 3 1 1 1 2 3 2 2 2 3 3 2 5 9 9 9 10 12 12 13 12 11 8 5 7 10 7 5 4 7 15 20 22 24 26 26 25 23 22 22 22 22 20 19 18 17 17 16 15 15 15 15 14 14 14 13 13 13 13 13 14 14 13 13 13 12 12 12 11 11 11 11 11 11 10 9 9 9 9 8 9 9 10 10 10 11 12 12 12 11 10 10 10 11 12 12
2 2 2 1 1 2 2 2 2 2 2 2 3 6 8 9 9 9 10 12 12 11 10 7 8 11 10 7 4 5 12 18 22 24 25 26 25 24 23 21 21 22 22 20 19 18 17 17 16 15 15 15 15 15 14 13 13 13 13 13 13 13 13 13 12 12 12 12 12 11 11 11 11 11 10 9 9 9 9 9 9 10 9 9 10 10 11 11 12 11 9 9 9 11 11 12 12
1 1 1 2 2 2 3 4 4 1 3 3 5 7 7 9 9 9 12 11 11 11 8 6 8 10 9 6 4 8 15 19 22 25 26 25 24 23 22 21 21 20 21 20 18 18 17 16 15 14 15 14 15 15 14 13 12 12 13 13 13 13 12 12 12 12 12 12 12 12 12 11 11 11 10 9 9 10 10 10 10 11 10 9 10 10 10 11 11 10 9 9 10 11 11 11 11
1 1 1 1 2 3 4 5 3 0 3 4 6 7 8 9 8 9 11 10 11 10 7 7 10 8 6 6 6 10 14 19 23 24 25 24 24 23 21 21 21 20 21 19 17 18 17 16 15 14 14 14 15 14 13 12 12 12 12 12 12 12 12 12 11 12 12 13 13 13 13 12 11 11 11 10 11 11 12 12 12 11 11 10 10 10 10 10 11 10 9 9 9 10 11 10 11
2 2 1 2 2 4 5 4 2 2 2 4 6 7 8 6 6 8 9 11 9 7 8 10 12 8 6 7 7 8 13 22 24 24 25 23 23 22 20 21 21 20 20 19 17 18 17 16 15 14 14 15 15 14 13 12 12 12 12 12 12 12 12 12 11 12 13 13 13 12 12 12 11 10 11 12 12 12 12 13 12 12 11 11 10 10 10 10 9 9 8 9 9 10 10 10 10
3 1 1 2 3 3 4 3 1 2 2 5 7 8 7 4 6 8 7 10 6 6 10 9 8 5 7 10 8 11 18 26 26 24 24 22 22 21 21 21 21 20 19 18 17 17 17 16 16 14 14 15 15 14 13 12 12 13 12 12 12 12 12 11 11 11 12 12 12 12 11 12 11 10 11 12 12 13 13 13 13 12 12 11 11 10 10 9 8 8 8 8 8 9 9 9 9
3 2 1 3 3 2 2 2 1 1 2 6 8 8 8 5 4 5 3 4 7 9 8 6 6 1 7 11 10 19 26 28 27 25 25 23 22 21 21 21 20 19 18 18 17 17 17 17 16 15 15 15 14 13 13 13 13 13 12 12 12 12 12 11 11 11 11 11 11 11 11 12 11 10 10 10 11 12 12 13 12 12 11 11 11 10 10 9 8 7 8 8 7 8 8 8 8
2 2 2 3 3 2 2 2 1 1 3 7 9 10 10 7 4 4 3 6 10 10 5 5 4 1 5 10 16 27 30 29 28 26 25 24 22 21 20 20 20 20 20 18 17 18 17 16 16 15 15 15 14 14 13 13 13 13 12 12 12 12 11 12 12 11 11 11 11 11 11 11 11 11 11 10 10 11 11 11 11 11 10 10 10 9 9 9 8 8 7 7 6 7 7 8 9
3 3 3 4 4 3 2 1 2 2 3 9 10 11 11 9 7 6 6 8 10 9 6 7 7 7 9 16 24 29 30 30 29 28 27 24 22 21 20 20 20 20 21 20 18 18 18 17 16 15 16 15 14 13 13 13 13 13 12 12 12 12 12 12 11 11 11 10 10 10 10 10 11 11 10 10 10 10 10 10 10 10 10 9 9 9 9 8 8 8 7 6 6 6 7 8 9
5 3 4 5 3 2 2 2 3 3 1 8 10 10 10 10 10 8 7 10 11 9 8 8 10 11 14 20 27 29 30 30 28 28 27 25 23 22 21 21 21 20 21 20 18 18 18 18 17 16 16 15 15 14 13 13 13 13 12 12 12 12 12 11 10 10 10 10 9 9 9 9 10 10 9 10 10 11 10 10 10 9 9 9 8 8 8 8 8 8 7 6 6 6 7 7 7
5 4 5 5 4 4 3 5 5 4 2 7 10 8 8 9 10 8 8 11 12 10 10 11 11 13 16 20 26 29 29 28 28 28 26 25 24 23 22 22 22 21 21 19 18 17 17 18 18 16 16 16 15 14 14 13 13 13 12 12 12 12 11 11 10 10 10 9 9 9 8 9 8 8 8 9 9 9 9 9 9 8 8 7 7 7 7 7 7 7 7 6 6 6 6 6 6
5 6 6 2 2 4 2 3 3 3 3 6 9 8 8 9 9 8 10 11 9 10 12 14 15 18 20 21 24 28 28 27 28 27 26 25 24 23 22 22 21 21 21 19 18 18 18 17 18 17 17 16 16 15 14 13 14 13 12 12 12 11 11 11 10 10 9 9 9 8 8 9 8 7 7 7 6 7 7 7 6 6 7 7 6 6 6 6 6 6 7 6 6 6 6 6 5
5 8 8 4 3 4 3 2 3 3 2 6 9 9 7 8 8 10 14 11 6 8 12 14 18 20 22 23 24 27 26 26 28 27 27 26 25 24 22 22 21 20 20 19 18 18 18 17 17 18 18 17 16 15 14 13 14 13 13 12 12 11 11 11 10 9 9 9 9 9 9 9 8 7 6 5 5 5 5 5 5 4 5 5 5 4 4 5 5 6 6 6 7 6 5 5 5
6 7 7 8 7 7 7 5 3 4 1 5 8 8 8 9 8 10 15 10 2 6 11 13 17 21 25 25 25 25 24 24 26 28 28 27 26 25 24 24 22 22 20 19 19 18 18 18 17 17 18 18 16 15 15 14 14 13 13 13 12 11 11 10 9 9 10 10 11 10 9 7 7 6 6 6 5 4 4 4 5 4 3 3 3 3 3 4 5 5 6 6 6 5 4 4 4
8 7 6 7 7 9 10 9 9 6 3 4 5 7 9 12 8 9 14 8 4 9 14 15 18 22 24 24 23 24 25 25 26 27 27 25 25 25 24 23 22 22 20 20 20 19 19 19 18 17 17 17 15 14 14 14 14 13 13 12 11 10 10 9 9 10 11 11 11 11 9 7 6 6 6 5 5 4 4 4 4 4 3 3 3 3 2 4 5 5 5 5 5 4 4 4 4
12 10 6 6 7 8 8 8 10 8 5 4 6 8 10 12 7 8 13 8 7 12 16 17 19 21 21 22 23 22 23 25 27 28 26 24 24 24 23 23 22 22 22 21 20 19 19 19 19 18 17 17 15 14 14 13 13 13 12 11 10 10 10 9 10 11 11 10 10 11 9 7 6 5 6 5 5 5 4 4 4 3 3 3 3 3 3 4 4 4 4 3 3 4 4 4 4
11 13 7 6 8 8 8 9 9 7 4 4 7 9 9 10 6 6 12 10 11 15 17 19 20 20 19 20 22 22 22 25 27 28 26 25 25 25 25 24 23 23 23 22 20 20 19 19 19 18 18 16 15 14 14 13 12 12 12 11 10 10 9 9 11 11 10 10 9 10 9 7 6 5 5 5 5 4 4 4 3 3 2 2 2 2 4 4 3 3 3 3 2 3 3 3 3
4 11 11 12 13 12 10 11 10 8 6 6 8 10 7 10 7 6 10 13 15 17 18 19 19 20 19 18 19 21 22 25 27 27 26 25 25 26 26 25 24 23 23 22 21 20 20 20 20 19 18 16 15 15 14 14 12 12 12 11 10 10 9 9 11 11 11 10 9 10 8 7 7 5 5 5 4 3 3 3 3 3 2 2 2 2 3 4 3 3 3 3 2 2 1 2 2
3 5 8 12 13 13 12 12 11 8 6 7 9 9 5 10 10 8 11 16 17 18 18 19 19 18 19 19 18 18 20 25 27 27 27 27 26 27 27 26 25 24 24 24 22 21 21 21 20 19 18 16 16 16 15 14 13 12 12 11 10 10 9 9 12 13 12 12 11 10 9 8 7 6 5 5 4 3 3 3 3 3 2 2 2 2 3 2 2 2 2 2 2 2 1 1 1
7 5 7 9 10 12 12 11 9 6 5 5 6 6 5 11 11 8 14 16 17 18 18 19 18 16 18 18 17 16 19 25 27 26 28 27 26 26 26 26 25 25 24 24 22 22 22 21 21 20 19 17 16 17 16 15 13 12 12 12 10 10 10 11 13 13 13 12 11 10 9 8 7 6 5 4 4 3 2 2 2 2 2 2 2 2 2 2 1 1 1 2 2 2 1 1 1
8 7 7 7 8 9 7 7 8 8 6 5 7 4 5 11 11 10 16 17 17 17 17 17 16 15 16 17 16 17 20 23 25 27 28 27 26 25 25 25 24 23 23 23 23 23 22 21 21 20 20 19 18 18 16 15 14 13 13 12 10 10 11 12 14 14 13 12 11 10 9 8 7 6 5 4 4 3 2 2 2 2 2 3 3 2 2 1 1 0 1 1 2 2 1 1 1
7 6 5 5 6 5 2 3 7 8 6 9 10 5 5 7 10 13 16 19 19 16 16 16 15 15 16 17 17 17 19 23 25 27 28 26 26 24 24 25 24 23 23 24 25 24 22 21 21 20 20 21 20 21 19 18 17 15 15 14 12 12 12 13 14 14 13 12 11 11 10 9 8 7 6 5 4 4 4 3 3 2 2 3 2 2 2 1 1 0 1 2 2 2 2 2 1
6 5 5 6 6 7 5 3 7 8 5 11 12 5 5 4 9 15 16 19 19 16 17 16 16 17 17 17 17 17 19 23 25 26 27 26 26 25 25 25 25 24 23 24 25 25 23 21 21 20 21 22 23 24 22 20 19 19 19 17 17 16 15 16 15 14 13 12 12 12 12 11 9 8 7 6 5 5 5 4 4 3 3 2 2 2 2 1 1 0 1 2 2 2 2 2 1
5 6 6 6 7 9 7 3 7 9 5 11 13 6 4 2 8 15 16 19 19 16 17 17 17 17 18 17 16 17 17 20 22 25 27 26 25 25 24 25 25 25 23 23 24 26 25 23 22 20 21 23 26 27 25 23 23 23 21 20 19 18 17 17 16 15 14 13 13 13 12 11 10 9 8 7 6 5 5 5 4 4 3 3 2 2 1 1 1 1 2 2 2 3 3 3 1
6 7 6 5 8 10 6 2 5 10 8 10 13 10 7 2 8 14 17 19 18 16 17 18 17 16 16 16 16 17 18 19 20 25 29 27 25 25 24 24 25 24 23 23 24 25 25 24 23 22 21 23 27 29 27 26 25 23 22 21 20 19 18 17 16 16 15 14 14 13 12 11 11 10 9 8 6 5 5 5 5 5 5 4 3 3 2 2 1 1 2 3 3 3 4 3 2
8 8 6 5 8 10 9 4 2 7 11 10 12 13 12 5 7 12 16 19 19 18 17 17 17 16 16 15 16 17 18 18 19 25 29 28 26 25 25 24 24 24 23 23 24 25 25 24 23 22 21 23 28 30 29 27 26 24 23 22 21 21 20 19 18 17 16 16 15 14 12 11 11 11 10 9 7 5 5 6 7 6 6 5 4 4 3 3 3 2 2 3 3 4 3 2 2
7 8 7 7 8 8 8 6 2 4 7 10 12 12 12 9 8 11 14 17 18 16 15 14 15 15 15 15 15 16 18 18 20 25 29 27 26 25 25 24 24 25 24 24 24 25 26 24 23 23 23 25 28 28 28 27 25 24 23 22 22 23 23 21 20 19 17 17 17 15 13 12 11 12 12 10 8 6 6 7 7 7 7 6 5 5 3 3 3 3 3 3 3 3 2 1 1
2 6 8 8 9 9 6 6 4 3 5 8 10 12 13 12 10 12 13 15 15 14 15 14 15 15 15 16 17 18 18 16 19 24 27 27 26 26 25 24 25 25 24 25 25 26 27 26 25 26 26 28 29 29 28 27 26 25 23 22 22 22 24 23 21 21 19 18 18 16 14 13 12 12 13 12 9 8 7 8 7 7 8 7 6 6 5 4 4 4 4 3 2 2 2 0 1
5 4 6 7 9 9 5 4 4 4 5 7 8 11 14 13 11 11 12 14 15 16 17 16 18 17 15 17 19 18 15 13 17 21 26 28 28 27 26 25 26 27 27 27 27 27 27 27 27 27 27 30 32 32 32 31 31 29 27 25 22 19 22 24 21 20 20 19 19 17 15 13 12 13 14 12 11 9 9 9 9 8 8 8 7 7 6 5 4 5 4 3 2 2 1 0 2
10 5 5 5 5 6 7 6 5 5 5 6 7 9 12 12 11 11 14 15 16 17 19 18 20 19 16 18 18 17 16 15 17 20 25 30 30 29 29 27 28 29 28 28 28 28 27 27 27 26 28 32 34 34 35 35 34 33 30 27 24 18 18 22 19 19 21 20 19 17 16 14 13 14 14 13 12 11 10 10 11 10 9 9 8 8 7 6 6 5 5 3 2 2 1 1 3
12 8 6 5 4 4 6 4 2 4 6 7 6 7 9 9 8 10 14 16 14 15 18 16 17 18 18 18 17 17 19 19 19 20 22 27 30 32 31 30 30 29 28 28 29 29 28 29 29 29 32 34 35 35 36 36 33 32 30 28 25 19 17 20 20 20 21 20 21 19 17 16 14 14 14 14 14 13 13 12 12 12 11 10 9 9 9 8 7 6 5 4 3 3 2 2 3
13 13 11 7 6 7 5 1 3 4 7 8 6 6 8 7 8 9 12 14 13 13 15 14 14 15 15 14 16 17 19 19 19 21 21 24 29 32 32 32 30 29 28 29 30 30 29 29 31 33 35 35 37 37 37 35 32 30 27 23 19 17 15 16 17 19 22 23 22 21 20 18 15 14 14 14 14 14 14 13 14 14 13 12 11 10 10 9 8 7 6 6 5 4 3 2 2
10 15 16 12 9 8 7 6 6 5 6 6 6 8 7 6 10 10 9 12 14 13 14 16 15 14 14 14 16 17 18 18 19 21 21 22 26 29 31 32 30 29 29 29 30 30 29 29 31 33 34 36 37 37 37 35 32 29 26 21 17 16 15 17 21 23 25 26 23 20 21 20 17 15 14 14 14 15 15 14 14 15 15 15 13 12 11 10 9 7 7 6 5 5 4 3 3
8 11 15 15 12 10 10 9 6 5 4 1 3 8 6 3 7 10 10 13 16 15 16 18 16 15 16 15 16 17 17 18 18 19 20 21 25 27 29 32 32 30 29 29 28 29 29 28 30 33 34 34 35 36 36 35 32 30 29 27 22 21 19 21 28 28 25 27 25 22 23 21 18 17 16 16 15 15 15 15 15 15 16 16 15 14 13 10 8 8 7 7 6 6 5 4 3
8 6 9 13 14 14 13 11 8 6 6 6 6 6 6 6 5 6 10 13 15 15 17 18 16 16 18 17 17 18 19 19 17 19 21 22 26 29 30 32 32 30 28 28 28 29 29 29 32 35 34 34 35 35 36 36 34 33 33 29 24 25 24 22 26 26 24 26 26 24 23 21 19 18 18 18 17 16 16 16 16 15 16 16 17 16 15 12 10 9 8 7 8 7 6 5 4
6 5 8 11 14 15 13 10 9 7 6 9 8 5 5 8 4 3 8 12 14 15 18 18 17 18 19 19 19 19 19 20 19 20 21 22 26 31 32 31 31 30 29 29 29 28 28 29 33 35 34 34 34 36 37 37 37 36 34 30 25 26 27 23 22 22 23 24 25 24 24 22 21 20 20 20 19 18 17 17 17 16 16 16 16 16 16 15 13 11 9 9 8 8 7 6 5
5 5 7 9 12 13 12 10 8 8 9 11 10 7 6 8 6 5 7 10 13 14 15 16 17 18 19 19 19 19 18 18 19 20 21 23 28 31 30 29 30 30 29 28 28 27 27 29 31 33 34 33 33 37 38 37 38 37 35 32 29 27 26 24 21 20 21 23 23 23 24 23 22 21 21 22 21 20 18 18 18 18 17 16 15 15 16 17 15 13 11 10 9 8 8 8 7
7 7 6 6 8 8 8 8 6 8 10 12 13 11 8 9 8 8 8 7 9 11 12 14 16 18 18 17 17 18 17 16 18 19 20 24 28 28 28 29 30 30 28 27 28 28 28 29 30 32 34 32 32 36 38 38 38 37 36 35 33 30 28 25 23 20 21 23 22 22 24 24 24 23 23 23 23 22 21 19 19 19 19 18 17 16 16 16 15 14 13 11 10 9 9 8 8
10 9 8 4 4 5 5 6 6 10 10 9 13 13 11 12 8 7 10 9 11 12 12 14 16 18 18 17 17 17 17 17 17 17 18 20 22 25 28 29 30 30 29 29 29 28 28 29 31 32 33 33 32 35 37 37 36 35 35 36 35 33 30 28 26 24 23 25 23 22 24 25 25 25 24 24 24 24 23 21 20 20 20 20 18 17 16 15 14 14 14 13 11 10 9 9 9
11 10 9 7 5 5 7 7 7 10 8 5 9 11 12 13 9 7 9 9 12 14 13 14 17 18 18 18 18 17 17 17 17 17 16 18 19 22 27 29 29 30 30 30 30 29 29 30 32 32 33 35 34 34 36 36 35 35 36 35 35 34 32 31 30 27 26 27 24 23 25 25 26 26 26 26 25 25 25 23 21 21 20 20 19 18 16 15 15 15 15 15 13 12 11 10 10
12 11 10 9 8 6 9 8 7 8 6 4 6 7 9 11 9 10 13 12 14 14 13 13 15 17 18 18 18 17 17 18 17 17 17 18 18 21 27 30 30 30 31 31 31 30 29 29 32 33 33 36 36 35 35 35 35 37 38 36 35 34 34 32 31 28 27 29 27 26 26 25 26 27 27 27 26 26 26 25 23 21 21 20 19 18 17 16 15 15 15 15 14 13 12 10 10
11 12 10 10 9 8 8 7 7 7 4 6 9 6 7 7 2 5 11 15 15 15 14 13 13 15 16 16 17 17 18 17 16 17 19 19 20 24 28 29 29 30 32 33 32 31 30 29 32 34 33 35 37 36 35 35 36 37 37 37 35 35 35 33 31 30 29 30 30 28 28 27 27 28 28 27 27 26 26 26 24 23 21 20 19 18 18 17 16 15 15 15 14 14 13 12 11
10 11 11 11 10 8 5 5 5 5 5 6 9 5 3 3 4 2 5 8 12 15 16 16 15 15 14 13 15 17 17 17 17 17 19 20 21 25 27 28 29 31 33 34 33 33 32 31 33 35 34 35 37 36 35 36 37 36 36 37 36 36 36 32 31 33 32 32 31 30 31 30 29 28 28 28 27 26 25 25 25 24 22 21 20 19 19 18 17 15 15 15 13 14 15 14 12
6 11 12 10 9 8 7 5 2 3 7 6 6 7 5 4 9 9 7 6 9 13 15 16 16 15 15 14 14 16 16 17 18 18 19 20 21 24 27 29 30 32 34 36 35 35 34 32 33 34 33 33 36 36 35 36 36 35 35 37 35 34 35 33 31 34 32 30 32 32 31 30 30 29 28 28 27 27 26 25 25 24 23 22 21 20 20 19 18 17 16 15 13 14 16 15 14
5 9 11 8 8 9 8 6 5 6 9 5 6 10 9 6 7 7 11 11 10 11 12 15 15 14 15 14 15 17 18 19 20 20 20 20 20 23 28 30 32 35 36 36 35 34 34 34 34 35 34 33 35 35 35 35 35 34 34 36 35 34 34 32 30 31 30 29 31 31 30 30 31 30 28 28 28 27 26 26 25 25 24 23 22 21 21 20 19 19 17 16 15 15 16 16 16
8 6 8 8 8 10 8 7 7 9 9 6 6 8 9 10 7 5 11 14 13 12 11 12 14 14 15 15 16 18 18 17 18 18 18 18 19 23 29 31 33 35 35 34 35 34 34 35 35 36 36 36 36 35 33 33 34 33 32 35 37 35 34 31 28 28 30 31 31 31 31 31 31 30 29 28 28 27 27 27 26 26 25 25 24 23 22 22 21 20 19 16 15 15 16 16 16
11 7 7 8 7 7 9 8 6 6 7 7 6 7 8 9 8 7 9 12 13 13 10 10 13 14 15 15 15 16 16 16 16 17 17 18 20 26 32 34 34 35 34 33 34 35 36 36 35 35 35 35 35 35 34 34 34 32 31 33 35 36 35 32 29 29 32 32 32 32 31 31 31 31 30 29 28 28 27 27 26 26 26 26 26 25 24 23 22 22 20 17 14 13 15 17 17
8 8 8 10 7 4 7 8 7 7 7 6 6 7 7 5 5 10 12 11 12 12 9 9 11 14 16 15 14 15 15 16 17 17 18 20 21 26 32 34 33 33 32 32 34 35 35 35 35 35 35 34 35 35 34 34 34 32 31 33 34 34 35 32 29 30 32 32 32 33 32 31 31 32 30 29 29 28 28 28 26 26 25 26 26 26 25 24 24 23 22 20 17 14 14 17 18
2 4 5 7 6 5 8 10 10 9 8 6 6 7 6 2 3 8 12 13 13 14 12 10 11 14 15 14 15 16 15 16 18 17 19 19 20 24 29 32 31 30 30 33 35 35 35 35 36 36 35 35 36 35 33 33 33 32 33 34 33 32 33 31 28 29 30 30 32 34 34 32 31 31 31 30 29 29 29 28 27 26 26 26 26 25 25 24 24 24 23 21 20 18 16 17 19
Wind_Direction
147 149 151 155 146 142 151 182 212 174 238 272 263 262 226 177 142 150 149 146 150 153 139 128 139 139 130 133 134 92 56 133 126 84 109 110 141 145 150 153 148 143 142 138 135 134 131 134 131 129 127 125 125 124 125 126 128 129 129 129 129 129 129 127 122 124 137 151 146 132 130 133 128 122 119 113 113 116 113 113 109 105 103 97 91 84 81 80 79 80 86 89 93 98 99 99 95
153 152 151 152 150 152 149 207 247 162 233 277 267 250 76 133 165 182 165 160 146 143 139 133 132 119 112 114 125 106 63 48 56 83 98 129 137 142 152 154 150 144 143 138 136 137 134 136 134 131 128 127 127 126 127 127 127 128 128 128 127 127 129 126 119 123 137 142 132 128 131 128 124 126 122 112 114 114 108 109 107 105 104 98 92 84 80 80 79 81 86 88 89 91 93 95 95
156 151 150 152 155 223 130 169 256 245 262 293 331 164 143 165 181 155 153 145 131 138 140 136 122 105 126 129 131 106 84 72 107 112 121 140 140 148 155 154 151 145 143 138 138 139 137 139 137 134 132 131 130 129 128 128 127 126 125 125 124 125 126 118 112 119 133 131 123 127 126 120 122 127 118 109 113 114 109 105 104 103 101 99 92 85 82 79 82 87 88 89 90 89 90 92 98
155 155 154 154 155 268 179 168 251 267 270 287 333 120 208 207 143 128 133 131 135 142 143 139 117 74 131 133 122 79 103 122 130 125 139 151 149 151 155 155 151 146 144 140 139 139 139 141 140 138 136 134 133 131 131 131 129 127 125 125 124 122 118 111 111 121 131 125 121 126 120 118 122 124 117 111 112 113 110 107 108 106 104 102 96 90 85 77 83 90 90 91 93 91 92 98 107
151 158 160 165 175 217 211 202 224 241 266 301 306 51 149 173 136 131 130 140 146 148 150 144 116 82 79 92 66 98 110 119 141 143 146 152 148 149 154 154 149 147 144 140 140 138 140 144 142 140 136 133 132 130 130 129 128 126 124 123 121 117 113 109 112 122 127 121 123 129 120 119 120 118 115 109 110 113 113 112 110 107 106 105 101 97 91 77 78 87 91 91 91 91 95 103 108
148 155 174 236 288 249 244 228 240 251 285 291 273 335 107 155 142 136 133 142 146 148 151 139 120 122 94 68 35 88 104 117 149 156 151 149 148 150 152 151 149 148 144 141 141 138 144 146 143 140 134 132 129 128 127 125 124 122 119 120 118 115 111 109 113 120 121 116 118 124 117 115 114 111 108 104 107 109 110 109 106 107 107 105 105 102 97 84 76 84 90 90 92 96 99 100 96
153 148 189 253 261 232 256 268 276 272 295 268 265 308 147 151 143 139 136 142 145 149 147 132 127 122 104 108 92 80 76 127 149 156 153 148 147 149 151 150 149 148 145 142 141 141 146 146 143 139 134 133 130 128 126 124 122 120 118 117 116 113 110 111 115 118 114 111 113 114 109 108 108 108 106 106 107 105 105 106 106 108 107 105 105 104 101 95 87 87 91 90 91 96 99 99 95
166 164 194 236 260 247 281 289 283 278 280 255 269 258 153 147 147 143 142 148 152 155 148 142 140 116 105 138 121 81 75 132 144 147 147 147 148 149 151 151 149 149 146 142 142 143 147 145 142 139 135 134 131 128 125 124 120 117 117 116 114 112 111 112 115 114 110 110 111 110 107 104 104 106 106 107 106 104 104 104 103 104 105 105 104 104 104 103 100 100 99 96 93 97 102 106 104
183 217 187 231 294 304 290 286 281 265 258 257 252 170 151 148 150 146 147 151 153 157 152 154 160 128 121 120 113 106 113 132 136 139 145 148 149 150 151 153 151 150 147 144 143 144 147 146 142 139 137 135 133 129 126 123 119 118 117 115 114 113 113 113 113 113 110 109 110 110 109 107 106 107 106 106 105 106 106 102 101 101 105 109 106 103 105 106 105 108 107 103 101 104 107 110 110
196 231 205 239 275 292 290 278 272 260 246 247 210 162 155 153 152 149 148 149 154 154 146 142 125 127 133 119 108 119 136 137 137 141 148 150 150 150 152 154 152 150 148 146 144 145 148 146 144 141 138 137 135 130 127 125 122 121 118 117 114 113 113 112 114 113 114 113 114 114 112 111 109 106 106 106 107 108 103 98 100 100 106 111 106 105 108 107 105 105 105 102 100 100 101 105 108
200 205 222 262 264 276 289 286 288 296 207 199 158 161 157 153 151 148 142 142 151 145 141 135 114 125 127 115 104 124 140 143 144 148 150 151 151 151 151 153 153 151 149 147 145 147 149 147 146 142 141 141 138 132 130 128 126 124 121 120 117 115 114 113 114 114 116 114 114 112 110 111 108 106 105 103 101 102 101 98 99 101 109 110 106 109 112 108 102 100 99 93 89 90 93 99 99
212 188 228 270 278 262 283 296 301 333 167 181 160 159 160 158 151 147 144 140 146 143 149 156 139 134 124 119 118 133 145 149 150 151 151 151 152 151 150 152 152 151 149 148 146 148 150 149 148 144 145 143 139 134 132 131 128 128 124 122 119 117 115 114 114 113 114 111 110 108 106 107 106 104 98 97 96 95 97 97 98 102 106 103 103 109 112 109 103 99 96 90 83 83 88 95 93
210 190 232 270 274 269 284 289 294 227 167 175 161 156 162 164 154 150 144 137 147 151 153 149 143 136 116 121 129 142 153 153 152 153 152 150 151 151 150 152 151 150 150 148 147 150 151 149 149 148 148 144 140 136 134 133 131 130 127 123 121 118 116 115 114 115 113 110 109 105 104 102 103 99 88 90 93 90 92 94 96 99 101 98 97 104 110 109 103 101 99 94 83 78 83 88 88
211 202 244 272 276 278 274 267 261 224 163 141 147 150 160 158 142 148 144 141 148 144 135 140 143 127 114 132 139 154 157 155 155 153 152 149 150 150 149 152 151 150 150 149 149 152 153 150 150 152 151 146 142 138 136 134 132 131 128 125 123 119 118 116 115 114 109 107 106 103 101 99 102 97 84 86 89 90 92 93 92 90 92 94 95 99 105 103 98 101 100 95 85 80 83 84 86
212 212 238 268 281 277 251 242 275 237 146 139 147 146 142 112 129 145 150 147 133 122 127 142 161 138 145 163 165 164 159 156 156 153 152 148 148 150 150 153 152 152 151 150 152 153 155 153 153 157 152 147 145 141 138 136 134 133 130 127 125 123 121 118 117 113 108 107 106 104 103 101 101 95 87 87 87 91 93 92 91 86 84 85 89 94 97 97 94 97 94 90 88 86 87 88 90
211 237 244 260 266 268 233 217 244 218 139 146 150 148 134 107 132 134 134 132 119 140 141 154 185 192 171 176 161 157 157 156 155 152 151 147 148 151 152 154 154 155 154 153 155 157 158 157 158 160 155 152 147 142 139 137 136 134 131 129 127 124 123 121 119 115 112 110 109 110 111 108 104 99 94 91 87 88 88 87 86 84 81 81 83 85 89 91 90 90 88 88 86 86 87 85 85
203 224 235 252 241 251 245 215 237 63 129 153 160 164 148 128 131 105 109 129 130 149 143 137 158 22 162 159 144 149 154 154 153 152 150 150 153 155 155 157 158 158 159 159 160 161 161 161 162 161 158 156 150 144 141 138 138 136 133 132 129 127 125 124 122 118 116 114 116 118 115 112 112 111 106 101 93 86 84 81 80 80 80 79 78 80 83 85 86 86 86 88 86 88 85 80 80
196 201 227 245 234 235 242 236 3 15 157 165 173 178 162 146 144 134 135 136 137 142 126 113 95 79 115 131 140 147 152 154 155 156 154 155 159 160 160 163 163 161 162 163 164 165 165 164 166 164 162 159 154 149 144 141 141 138 137 136 133 132 130 128 125 123 123 122 123 123 119 116 116 115 113 109 103 96 91 87 86 84 81 79 77 77 78 78 82 83 84 87 87 86 79 78 80
205 204 230 234 223 210 237 289 330 324 204 165 177 185 175 156 147 155 157 148 149 145 136 125 105 105 119 133 143 149 154 157 159 160 158 161 164 165 165 166 166 166 166 165 165 168 168 168 168 167 165 163 159 154 148 145 145 143 142 141 139 138 137 134 131 131 131 128 128 128 122 118 116 116 118 113 106 102 97 93 91 89 88 85 82 80 79 78 80 85 88 89 82 77 74 75 77
205 215 238 238 247 253 256 278 279 288 261 174 176 179 180 162 148 166 164 154 167 165 156 152 136 134 138 142 148 152 158 160 161 163 162 164 167 168 168 168 169 171 170 166 165 168 171 171 171 170 169 167 163 158 154 151 149 149 147 147 145 144 145 142 141 140 137 133 134 133 128 125 120 118 121 114 107 103 96 94 94 99 103 92 86 86 83 82 82 85 84 81 77 76 75 74 75
191 211 233 226 251 264 273 310 288 262 225 179 168 170 177 163 156 168 157 158 187 191 177 166 153 147 148 151 154 158 161 163 165 166 165 166 167 169 171 170 171 171 169 167 167 171 173 173 173 174 172 171 169 164 160 157 155 154 153 153 151 151 154 153 152 150 146 143 141 139 141 140 131 126 124 115 110 109 101 96 97 104 104 95 89 83 79 81 80 82 78 77 79 80 79 76 78
209 222 240 246 271 296 311 4 52 66 140 155 160 175 168 156 171 176 172 180 199 195 185 165 152 150 154 157 158 162 165 166 168 169 169 169 169 170 172 172 172 170 170 171 171 173 175 174 174 176 176 175 173 170 165 163 161 160 161 161 159 160 163 163 161 160 157 150 146 146 148 148 142 138 135 129 123 118 111 106 109 108 98 93 88 72 69 78 78 80 80 80 81 81 77 70 68
231 234 246 251 260 276 283 300 346 18 113 164 168 175 156 162 188 188 192 202 160 153 167 154 150 153 155 157 161 166 169 170 171 172 172 172 171 172 173 174 173 171 172 174 173 174 176 176 177 177 179 179 178 175 171 170 170 167 169 169 167 168 171 172 169 168 166 157 153 152 149 150 147 147 148 144 140 133 131 129 128 126 113 101 96 82 79 87 86 83 81 80 76 74 67 56 49
237 250 259 257 259 262 272 290 297 305 265 214 181 170 171 185 192 188 201 211 133 143 150 147 148 152 155 158 165 169 170 172 173 174 174 174 175 175 175 175 174 173 174 175 174 175 177 179 179 179 181 182 180 179 175 176 177 175 176 177 177 179 177 180 180 176 173 165 160 158 153 155 153 154 154 149 148 144 147 149 141 138 131 129 124 113 105 105 100 92 85 79 73 68 58 49 39
233 245 263 264 263 265 274 288 288 291 276 232 190 189 194 194 183 181 201 200 149 147 143 145 148 152 159 163 167 170 171 173 173 175 176 176 176 176 177 178 177 176 176 176 176 178 179 180 181 182 184 183 182 182 180 181 182 181 181 182 185 187 185 188 188 182 180 176 169 164 160 162 162 160 158 151 147 145 151 157 149 144 142 138 133 124 130 123 109 98 87 80 75 68 58 48 37
227 236 256 271 271 273 279 284 284 291 283 218 204 221 213 190 180 191 197 180 146 144 145 147 151 157 164 167 168 170 172 174 175 176 177 178 178 179 181 181 180 180 178 176 177 180 180 181 184 186 186 185 184 184 184 185 184 185 186 187 191 191 191 194 192 188 188 187 181 174 171 172 172 170 168 159 150 147 155 161 159 159 158 149 140 137 142 132 115 101 85 78 72 69 60 42 28
225 236 252 262 271 275 274 275 274 284 281 246 236 251 224 180 196 213 179 163 148 145 150 153 156 163 167 169 170 172 175 176 176 175 177 179 181 183 183 183 184 182 180 179 180 181 181 183 186 187 188 187 187 187 187 187 187 189 191 190 193 195 195 196 195 197 197 196 192 184 180 180 181 185 183 174 168 169 168 171 181 181 183 175 154 144 147 136 123 108 93 87 78 80 56 23 18
256 251 262 260 268 271 264 261 263 268 272 247 234 254 223 178 211 218 161 154 153 150 154 159 162 166 169 170 171 174 178 177 177 178 181 183 184 185 184 185 185 183 182 183 182 181 183 185 186 188 190 189 190 190 189 189 189 191 194 195 197 198 198 199 200 202 202 203 200 191 188 187 189 192 190 189 192 196 191 192 198 195 195 189 170 163 169 159 142 126 104 92 79 81 46 7 2
253 269 278 276 278 272 257 248 249 243 250 230 208 244 215 194 216 189 153 156 157 154 158 163 166 167 170 172 173 178 180 179 181 185 186 186 186 185 185 186 184 183 184 184 182 183 185 186 187 189 191 193 193 193 192 191 190 192 194 197 201 200 199 202 202 202 203 205 204 198 195 194 197 201 198 199 206 214 212 209 216 206 195 192 190 187 188 185 165 148 86 66 55 53 36 5 325
239 254 266 284 286 271 248 232 232 227 233 188 177 245 229 207 209 165 151 160 158 158 163 166 168 168 173 177 178 182 181 182 186 189 189 187 188 187 186 186 185 183 183 184 185 185 185 186 188 191 193 195 196 195 196 194 193 192 194 197 201 201 202 204 202 201 203 205 209 208 205 203 205 208 208 210 220 233 240 234 232 224 201 195 205 204 193 193 178 150 18 19 26 30 21 1 330
217 231 242 257 267 254 195 185 213 211 201 175 183 249 251 210 194 167 157 163 162 165 169 169 170 170 175 180 182 185 185 189 190 190 190 188 188 188 186 187 186 184 182 184 186 185 185 186 188 191 194 197 198 200 202 201 199 198 199 202 203 203 205 207 205 203 205 207 212 217 214 212 213 215 217 222 233 246 255 252 240 228 211 201 213 218 209 204 190 141 6 5 14 22 16 359 333
202 208 220 220 237 252 239 194 206 212 180 177 192 240 257 220 176 168 164 167 167 170 173 173 174 173 178 183 184 188 190 193 193 191 191 190 189 190 187 188 187 185 184 183 185 186 187 188 189 192 195 197 201 204 205 205 208 209 210 211 211 211 210 211 210 209 211 211 215 222 222 219 219 221 224 230 242 252 254 252 241 226 216 209 218 227 227 222 210 9 10 11 9 13 16 359 328
199 212 220 200 208 240 247 208 211 219 181 180 200 239 271 209 165 168 168 173 173 172 176 177 177 176 180 185 187 190 191 193 195 195 193 190 191 191 188 189 189 188 186 184 183 186 189 191 192 195 195 198 204 207 208 210 214 217 217 218 218 216 216 217 216 215 216 215 216 221 222 222 223 226 230 235 244 255 255 250 240 227 221 220 227 241 247 249 278 335 351 9 8 2 4 357 349
194 211 221 201 207 228 237 222 210 211 205 194 206 233 253 177 154 171 173 176 178 178 179 179 179 179 181 186 188 190 191 193 196 195 193 191 192 190 189 191 190 189 190 188 186 187 190 190 194 197 196 199 206 210 212 214 217 220 222 224 224 221 220 221 222 221 220 217 216 218 219 222 227 230 234 238 244 255 256 244 235 225 221 222 227 242 254 261 279 312 342 359 352 349 354 349 343
200 198 209 205 213 230 230 225 178 192 211 209 204 226 242 217 158 178 181 180 184 185 182 179 179 179 181 184 189 191 192 194 195 193 191 191 190 188 189 190 189 190 191 191 190 190 191 190 193 197 197 201 207 211 214 215 218 221 224 226 227 225 223 222 224 224 223 219 215 215 218 223 231 234 234 236 241 252 254 239 230 222 219 223 227 238 253 261 273 297 331 341 333 339 346 336 327
209 202 211 210 212 231 231 228 215 179 212 217 213 225 237 227 190 187 188 185 190 188 180 179 180 180 182 185 189 190 192 195 192 190 190 190 190 189 189 189 189 191 191 191 191 193 194 192 193 195 198 203 207 209 211 213 215 219 222 224 225 226 224 223 224 225 225 222 217 215 220 226 233 236 235 235 237 244 248 238 230 224 221 226 231 238 250 260 276 290 306 322 320 322 313 260 244
235 204 214 220 221 232 227 226 242 222 228 229 222 230 239 236 213 194 190 189 194 189 181 181 183 183 186 188 191 191 194 194 188 189 190 190 192 190 188 189 189 190 192 191 191 194 195 194 194 196 199 203 206 207 208 209 211 213 216 219 221 223 224 224 225 226 227 226 221 219 224 229 234 237 234 233 234 238 241 240 235 232 231 235 239 246 255 264 279 284 292 310 304 302 321 157 179
252 221 216 222 224 236 244 250 263 234 237 242 228 234 242 240 225 198 186 190 197 194 186 185 187 188 189 191 192 192 191 188 186 190 193 194 195 193 189 190 191 191 192 192 192 194 195 196 198 199 199 203 207 209 209 210 213 214 215 217 219 220 224 225 225 228 229 228 226 223 227 232 234 236 234 232 235 239 242 245 245 242 240 242 248 252 256 263 273 279 284 297 292 285 327 298 208
242 237 227 226 213 242 260 254 258 236 235 249 233 237 248 245 229 202 188 195 203 200 194 190 188 188 191 193 191 189 187 187 189 192 194 197 199 197 194 195 196 195 193 193 194 194 194 197 198 198 200 204 208 210 211 213 216 217 217 219 220 218 224 226 226 229 229 230 230 229 230 232 231 234 233 234 240 245 247 250 251 250 246 246 250 254 257 261 266 273 272 268 277 276 263 246 223
235 234 231 227 196 224 239 209 230 246 239 254 250 246 255 250 227 205 200 203 205 204 203 198 192 191 194 193 189 187 187 188 190 193 194 196 199 200 199 199 198 197 195 194 194 194 194 196 197 198 202 206 208 211 214 214 216 218 218 221 223 222 227 230 230 233 232 231 231 231 231 230 229 231 234 238 244 249 252 254 254 253 250 250 251 254 257 261 264 269 268 259 261 269 272 255 226
228 233 234 229 216 230 246 293 337 285 240 239 247 260 259 237 223 216 207 209 209 204 203 203 202 200 196 190 191 192 190 189 189 191 193 194 198 200 200 200 197 196 195 195 195 194 195 196 198 201 204 207 209 212 214 213 213 214 213 215 219 221 225 228 229 232 232 230 229 230 230 229 229 231 235 241 246 249 252 254 256 254 252 252 252 253 256 259 263 265 265 263 259 264 273 272 240
224 230 232 233 235 238 254 281 300 285 236 210 212 247 252 217 222 223 198 202 212 203 199 205 204 198 195 193 195 196 194 193 191 191 192 193 195 197 199 200 197 196 197 196 195 195 196 196 198 201 204 206 210 212 212 211 209 208 205 201 199 204 207 214 220 223 225 225 224 226 228 228 229 233 237 241 244 246 248 253 256 256 254 253 252 253 254 257 262 262 263 262 257 261 265 261 249
230 224 221 226 236 241 247 258 263 258 254 213 205 243 255 219 222 220 196 200 208 201 203 209 204 195 197 199 197 195 195 195 194 194 193 192 193 194 197 198 197 198 198 196 196 196 196 194 195 199 202 205 208 209 209 208 206 205 206 203 200 202 203 213 222 222 221 222 222 224 226 227 229 233 237 239 241 243 246 249 255 257 256 254 253 253 251 251 254 256 262 262 258 261 255 248 250
234 203 190 208 225 233 238 246 246 257 284 283 251 242 263 256 231 211 201 208 210 202 207 212 204 200 202 202 200 197 196 194 192 194 194 194 194 194 196 197 198 199 197 195 196 196 194 193 196 200 202 205 206 206 207 207 206 205 207 206 204 209 210 216 223 223 224 225 224 226 228 229 229 232 236 238 239 242 246 248 252 256 256 255 254 252 250 248 248 253 261 262 261 262 251 241 248
230 160 171 198 215 224 231 241 246 256 276 267 243 213 253 255 222 185 204 212 215 208 210 213 205 203 205 204 203 200 198 196 194 195 195 195 196 197 197 196 196 197 196 196 195 194 193 194 198 201 202 204 205 206 207 207 208 207 208 205 205 212 215 218 221 222 224 226 225 227 229 231 231 233 235 237 239 242 246 248 251 255 257 258 255 250 247 247 248 250 255 260 262 263 258 249 247
210 158 187 202 207 215 221 230 243 249 249 252 242 210 237 259 224 192 201 209 215 212 213 215 207 206 207 204 204 201 197 197 197 198 196 196 198 198 197 195 195 196 197 196 193 193 193 193 196 199 201 202 203 206 207 207 208 208 207 206 207 211 213 214 216 218 222 223 223 225 228 230 231 234 235 237 239 241 245 248 250 252 255 258 258 251 247 248 248 249 250 256 258 259 260 259 255
187 179 202 198 199 205 213 220 226 243 244 243 240 220 223 260 239 201 203 204 202 205 213 214 208 209 209 207 206 202 198 198 198 199 198 197 198 197 196 196 195 196 196 194 192 192 193 193 195 198 201 201 202 205 206 206 207 207 208 209 210 210 210 210 211 212 217 219 219 221 225 228 230 233 236 237 238 240 245 248 249 251 252 255 257 255 251 248 246 249 251 251 253 255 256 258 259
192 199 206 187 184 185 200 204 199 233 243 228 229 222 219 244 240 199 204 197 191 205 212 209 206 208 209 207 206 203 201 199 196 197 197 195 195 195 196 197 196 194 194 193 192 192 192 192 194 196 199 200 201 203 205 205 205 205 208 210 211 210 209 209 210 210 213 216 215 216 220 224 228 232 235 237 239 239 242 246 248 249 250 251 253 254 254 250 245 246 250 251 250 251 251 252 255
203 205 204 201 197 185 202 203 200 229 240 211 214 215 219 244 252 222 213 198 197 212 215 208 205 206 207 207 205 203 202 199 196 194 194 192 192 193 194 195 193 191 192 192 192 193 192 192 192 194 197 200 201 202 204 204 204 205 208 209 210 210 210 212 212 211 214 216 214 213 217 220 224 229 232 236 238 238 240 243 245 247 249 250 251 252 256 257 253 249 250 252 252 251 250 249 252
205 202 200 204 200 203 213 212 219 230 234 208 201 208 232 254 255 223 220 215 208 215 219 213 206 203 205 205 204 203 201 200 197 193 192 192 192 192 194 194 191 190 192 192 192 193 192 191 192 194 197 200 201 201 203 203 204 207 209 209 209 210 211 212 213 213 214 217 217 217 219 220 223 228 232 235 237 237 238 240 243 247 249 250 250 251 254 259 260 255 251 252 252 253 251 247 251
203 202 204 211 204 212 216 211 225 235 243 207 189 194 223 232 222 194 217 222 211 211 216 212 208 205 204 203 202 202 201 200 197 194 193 194 192 192 194 194 191 190 193 194 193 192 190 190 191 193 196 198 200 201 202 203 206 208 210 209 210 211 212 212 214 214 215 218 219 220 222 223 226 231 235 238 238 238 238 240 243 247 249 250 251 251 252 256 260 258 254 252 249 250 249 247 249
201 196 207 218 209 211 219 226 230 234 257 224 196 210 231 246 300 281 232 231 214 211 213 208 208 206 202 203 201 201 202 200 197 196 195 195 193 190 191 192 191 191 193 195 194 191 190 189 190 193 195 197 199 201 202 204 206 207 208 210 210 212 212 211 213 216 218 220 221 222 225 227 230 233 238 240 240 239 239 240 243 246 249 250 251 252 251 253 257 258 256 251 245 246 248 247 248
187 194 212 213 202 207 222 236 214 215 247 228 198 233 245 272 278 249 216 226 217 213 213 210 209 203 198 201 200 199 201 198 197 196 196 195 191 190 192 193 191 191 192 194 194 191 190 189 190 193 195 196 198 200 202 205 206 206 208 210 209 210 211 211 213 216 217 219 222 224 226 229 232 235 238 240 240 240 240 240 242 245 248 249 250 252 251 251 254 256 255 251 246 246 250 250 249
194 202 202 182 191 212 225 234 209 213 238 220 197 233 234 231 251 219 196 210 219 212 209 211 208 199 198 202 200 199 199 197 197 196 194 191 189 191 193 194 194 194 194 193 191 189 189 191 192 193 193 195 197 199 201 203 204 205 206 208 209 209 211 211 212 214 213 214 219 222 224 228 232 234 236 238 239 240 241 241 242 244 246 248 249 250 251 250 251 253 253 253 251 248 249 251 252
232 231 183 172 203 209 204 224 225 222 235 228 212 234 240 230 231 203 190 203 218 216 207 210 203 193 201 207 203 200 199 197 197 196 193 189 190 192 193 196 197 196 194 192 190 189 191 193 194 195 195 196 197 198 200 202 203 204 205 208 210 210 210 209 208 210 212 214 217 220 222 226 231 233 235 237 238 239 241 242 243 244 244 246 247 248 250 250 250 252 252 251 250 248 248 250 252
226 237 196 197 221 214 201 211 224 226 232 234 222 225 241 236 226 229 217 208 218 218 207 207 201 196 202 207 204 200 197 197 197 197 195 190 192 194 194 196 197 195 193 191 190 192 194 194 194 195 196 196 196 196 197 200 202 202 203 206 208 209 210 209 208 210 214 216 218 220 222 224 228 231 233 236 237 238 240 243 244 244 243 244 245 246 248 250 250 252 252 248 244 242 246 250 251
212 219 214 210 209 212 212 212 215 224 231 229 222 228 241 230 200 224 232 225 225 225 216 207 201 202 205 204 202 199 195 199 199 197 196 193 193 195 195 196 196 193 190 189 191 193 194 195 195 195 196 194 195 196 196 198 199 200 202 204 206 208 210 209 209 212 215 216 218 221 223 224 227 230 232 233 236 238 241 244 245 244 243 244 245 246 246 248 250 252 253 252 248 243 244 249 252
242 227 227 223 220 218 218 214 208 218 233 228 226 243 247 218 176 216 225 223 222 221 220 217 204 203 208 203 200 198 195 198 201 199 197 195 193 194 195 193 191 189 188 187 191 193 193 195 195 195 196 195 196 196 196 196 196 198 202 204 205 206 208 208 207 210 214 215 218 222 224 224 225 229 232 233 235 238 242 245 244 244 245 245 247 247 246 247 249 252 254 253 252 249 245 246 252
Height
793 795 795 797 797 799 801 801 813 815 814 819 810 807 803 794 798 802 804 802 801 797 790 791 792 794 799 803 804 804 806 809 813 820 823 816 812 816 817 819 822 823 825 826 827 829 829 831 832 832 833 834 835 836 837 837 838 839 841 842 844 846 847 850 851 851 848 845 846 850 851 850 851 852 853 853 854 854 854 854 855 855 856 857 858 858 857 857 857 857 857 858 858 859 860 860 860
793 795 796 798 797 800 803 801 816 819 816 818 807 804 800 794 799 802 802 800 798 793 788 790 792 794 795 796 798 804 808 808 808 811 813 812 814 817 818 820 822 824 825 826 828 829 831 832 833 833 834 835 836 837 838 839 840 841 842 843 845 847 848 850 851 850 847 846 847 850 851 851 852 853 853 854 854 854 855 855 856 856 857 857 858 858 857 857 857 858 858 859 860 861 862 861 861
793 794 795 798 798 800 802 805 818 819 819 819 807 799 797 798 799 797 796 794 791 788 788 790 793 796 796 800 802 806 812 809 806 808 811 813 814 817 819 820 822 824 826 827 829 830 832 833 834 835 835 836 837 838 839 840 841 842 843 844 846 847 848 850 852 851 848 847 849 850 851 852 853 853 854 854 855 855 856 856 857 857 858 858 859 858 858 858 858 859 860 860 861 862 863 863 862
793 795 796 797 800 803 806 812 815 816 818 815 808 799 796 798 796 794 792 790 788 787 790 792 797 796 796 806 805 806 811 809 807 807 811 814 814 816 819 821 823 825 826 828 830 831 833 834 835 836 837 838 838 840 840 841 842 843 844 845 846 848 849 851 853 851 849 850 851 852 852 853 854 854 855 855 856 856 857 857 857 858 858 859 860 859 858 858 860 861 861 862 862 863 864 864 863
794 796 797 796 803 805 805 810 809 813 811 807 807 798 795 795 793 794 791 789 787 788 790 792 800 798 796 803 803 806 809 808 808 807 810 813 815 817 819 821 824 825 827 829 830 832 834 835 836 837 838 839 839 840 841 842 843 844 845 846 847 849 850 852 853 850 850 852 852 853 854 854 855 855 855 856 857 857 858 858 858 859 859 860 861 861 859 859 861 862 862 863 864 864 865 865 864
795 797 797 796 800 800 805 811 810 810 801 797 802 795 793 792 790 792 790 789 786 787 788 791 798 799 802 803 801 804 806 807 808 808 809 812 815 817 820 822 824 826 828 829 831 833 834 836 837 838 839 840 841 841 843 843 844 845 846 847 848 850 851 852 853 851 851 853 854 854 855 855 855 856 856 857 857 858 858 858 859 859 860 861 862 862 861 860 861 863 863 863 864 865 866 865 864
794 797 799 801 800 799 808 812 807 806 795 791 796 792 791 789 788 789 791 793 791 789 789 792 792 798 808 805 804 805 803 806 806 808 810 812 815 818 821 823 825 827 828 830 832 834 835 837 838 839 840 841 842 843 844 844 845 846 847 848 849 850 852 853 853 852 852 853 854 855 855 856 856 857 857 857 858 858 858 859 859 860 860 861 862 863 863 863 863 864 864 864 865 866 867 866 865
793 796 797 802 804 801 806 807 802 801 794 789 789 789 788 787 786 788 792 793 794 793 791 792 789 800 810 804 808 808 804 806 806 809 811 813 816 818 822 823 825 827 829 831 833 835 836 837 839 840 841 842 842 844 845 845 846 847 848 849 850 851 852 854 854 853 853 854 855 855 856 856 857 857 858 858 858 858 859 859 859 860 861 862 863 863 864 865 865 866 867 867 868 867 868 868 869
793 795 796 802 806 804 805 804 801 797 794 789 787 787 785 785 785 787 790 791 792 792 793 791 789 802 810 806 811 808 805 808 808 811 812 814 816 818 822 824 826 827 829 832 834 836 837 838 840 841 841 842 843 844 845 846 847 848 849 850 851 852 853 854 855 855 854 855 856 856 857 857 858 858 858 859 859 859 859 859 860 860 861 862 863 864 865 865 866 867 868 869 869 869 869 870 871
795 796 798 803 805 808 808 803 799 795 792 788 786 785 784 784 785 787 789 791 790 791 793 789 791 801 808 810 812 807 806 808 808 812 814 816 817 819 822 824 826 827 830 832 834 836 838 839 840 842 842 843 844 845 846 847 848 849 850 851 852 853 854 854 855 856 856 856 857 857 858 858 858 859 859 860 860 860 860 860 860 861 861 862 863 864 865 866 867 867 868 869 869 869 869 870 871
798 796 797 804 808 814 811 803 798 793 790 786 786 783 782 782 785 787 788 791 789 792 793 790 797 802 805 811 811 807 807 809 809 812 814 817 819 820 823 825 827 829 830 832 834 837 838 840 841 843 843 844 845 846 847 848 849 850 851 852 853 853 854 855 855 856 857 857 857 858 859 859 860 860 861 861 861 861 861 861 861 862 862 863 864 864 865 866 867 867 868 868 869 869 869 870 870
801 800 798 807 811 812 807 802 798 792 791 789 789 783 779 781 786 789 789 792 790 794 793 791 797 798 806 814 810 808 807 810 811 813 815 817 820 822 824 826 828 830 832 833 835 837 839 840 842 844 844 845 846 847 848 849 850 851 852 852 853 854 855 855 856 857 857 858 858 859 859 860 861 861 861 862 862 862 862 862 862 863 863 864 864 865 866 866 867 868 868 868 869 869 870 871 871
800 800 801 808 806 806 804 801 797 793 794 789 787 782 778 782 787 788 788 791 791 796 794 789 791 794 807 812 809 809 808 810 812 814 816 817 820 823 825 827 829 831 832 834 836 838 839 841 843 844 845 846 847 848 849 850 851 851 853 853 854 855 855 856 857 857 858 859 859 860 860 861 861 862 862 862 862 863 863 863 863 864 864 865 865 866 867 867 868 869 869 869 869 870 871 872 872
796 795 799 806 803 804 803 799 795 795 794 786 784 781 779 783 784 783 785 793 794 792 789 785 786 795 808 812 812 810 808 810 812 815 816 818 821 823 826 828 830 832 833 835 837 839 840 842 843 845 846 847 848 849 850 851 852 853 853 854 855 856 856 857 857 858 859 860 861 861 861 862 862 863 863 863 863 863 864 864 865 865 865 866 867 867 868 868 869 870 870 870 871 872 873 874 874
792 791 795 804 805 806 800 796 794 793 792 785 783 781 782 784 781 783 784 791 794 785 785 786 785 795 805 808 811 807 806 810 812 815 817 819 822 824 827 828 831 832 834 836 838 840 841 843 844 845 846 847 848 849 851 852 853 853 854 855 856 856 857 858 859 859 860 861 861 862 863 863 863 863 864 864 864 865 865 866 866 866 867 867 868 868 869 869 870 871 871 872 872 873 874 876 876
789 790 798 803 806 808 799 792 792 793 790 783 782 780 786 786 780 785 783 783 790 785 785 790 787 791 796 798 800 800 804 809 812 816 817 820 823 825 827 829 832 833 835 837 838 840 841 843 844 846 847 848 849 850 851 852 853 854 855 856 856 857 858 859 860 860 861 861 862 863 864 864 864 864 865 865 865 866 866 867 867 867 868 868 869 869 870 870 871 871 872 873 874 874 875 877 877
787 793 804 805 806 808 797 790 790 790 788 784 783 780 787 790 782 783 780 779 788 789 788 789 787 787 790 792 794 798 805 808 811 815 817 820 823 825 828 829 832 833 835 837 839 841 842 844 845 846 847 848 850 850 852 853 854 855 856 856 857 858 859 860 860 861 862 862 863 864 865 865 865 866 866 867 867 867 867 868 868 869 869 869 870 870 871 871 872 872 873 874 875 875 876 877 878
791 798 805 805 803 800 790 786 784 783 785 784 783 780 783 789 786 782 783 786 789 791 791 790 789 789 790 792 796 801 805 808 811 814 816 819 821 824 826 829 831 833 835 837 839 841 842 844 845 847 848 849 850 851 852 853 855 855 856 857 858 859 860 861 861 862 862 863 864 864 865 866 867 867 868 868 868 869 869 869 870 870 870 870 871 871 871 872 873 873 874 875 875 876 877 878 879
793 797 802 801 794 789 783 781 780 780 781 781 781 779 780 784 784 782 788 794 791 794 796 793 795 795 794 795 799 803 805 808 811 812 815 817 820 822 825 828 830 832 834 837 839 841 843 844 845 847 848 849 850 851 852 853 855 856 857 858 859 860 860 861 862 862 863 863 864 865 866 866 867 868 868 869 869 869 870 870 871 871 871 871 872 872 873 873 874 875 875 876 876 877 878 879 880
790 794 800 795 785 784 779 779 778 777 777 779 782 779 780 780 779 782 788 794 792 794 795 794 799 799 798 798 799 803 806 808 810 812 814 817 819 822 824 827 829 832 834 836 839 841 843 844 846 847 848 850 850 851 853 854 855 856 858 859 859 861 861 862 863 863 864 864 865 865 866 866 867 868 868 869 869 870 870 871 871 871 872 872 873 874 874 874 875 876 876 877 878 878 879 880 881
788 790 794 787 781 783 778 776 776 773 773 777 780 781 782 779 777 782 786 794 796 791 787 788 793 795 797 798 799 802 805 807 810 812 814 816 819 822 825 827 829 831 834 836 838 841 843 844 845 847 848 850 851 852 853 854 855 857 858 859 860 861 862 863 863 864 865 865 866 867 867 867 868 868 869 870 870 871 871 872 872 873 873 873 874 875 875 876 876 877 878 878 879 880 880 881 882
787 785 783 780 780 783 777 773 774 773 774 777 781 783 782 778 779 781 783 791 790 783 781 781 785 789 792 795 798 801 804 806 809 811 813 816 818 821 824 827 829 831 834 836 838 840 842 844 845 847 849 850 851 852 853 854 855 857 858 859 860 861 862 863 864 865 866 866 867 868 868 869 869 870 870 871 871 872 872 873 874 874 875 875 875 876 876 877 878 878 879 880 880 881 881 882 882
789 784 778 778 779 781 775 771 773 773 777 780 780 778 776 780 783 780 779 782 778 774 776 779 782 785 789 793 797 800 802 805 807 810 812 815 818 820 823 825 828 830 833 835 837 840 842 844 845 847 848 849 851 852 853 855 856 857 858 859 860 861 862 863 864 865 866 867 867 868 869 870 870 871 871 872 873 873 874 875 875 876 876 877 877 877 878 878 879 879 880 880 881 882 882 882 883
789 786 780 778 777 778 773 770 771 772 776 777 774 775 777 783 783 779 779 777 773 772 774 778 783 786 789 793 796 798 801 804 807 810 813 816 818 820 823 825 828 830 832 835 837 839 841 843 845 847 848 850 851 852 854 855 856 857 858 860 861 861 862 864 865 865 866 867 868 869 870 871 871 872 872 873 873 874 875 875 876 877 877 878 878 878 879 879 880 880 881 881 882 882 882 883 883
788 785 780 778 776 774 771 770 770 770 773 772 772 777 777 777 777 779 780 775 772 772 774 779 783 787 791 793 795 798 801 804 807 810 813 816 818 821 823 825 827 829 831 834 836 838 841 843 845 846 848 849 851 852 854 855 856 857 859 860 861 861 863 864 865 866 867 867 868 869 870 871 872 872 873 873 874 875 876 876 877 877 878 878 878 879 880 880 881 881 882 882 882 883 883 883 883
783 781 779 778 776 773 770 771 770 770 770 770 775 778 775 771 774 779 776 773 772 773 777 780 784 789 791 793 794 797 800 802 805 809 812 815 818 820 822 824 826 828 830 833 835 838 840 842 844 846 847 849 851 852 854 855 856 857 859 860 861 862 863 864 865 866 867 868 869 869 870 871 872 873 873 874 874 875 876 877 877 878 878 878 879 880 880 881 882 882 882 883 883 883 883 883 883
776 778 778 777 776 772 770 771 769 769 769 769 775 777 773 770 776 781 773 769 772 775 780 781 784 789 790 792 793 796 799 801 804 808 811 814 816 819 821 823 825 827 830 832 834 837 839 841 843 845 847 848 850 852 853 854 856 857 859 860 861 862 863 864 865 866 867 868 869 869 870 871 872 873 874 874 875 876 876 877 878 878 878 879 879 880 881 881 882 883 883 883 883 883 883 883 884
774 777 779 776 774 771 769 771 769 769 769 766 770 775 773 773 777 777 770 768 771 775 781 782 785 788 789 792 794 796 798 801 804 806 808 810 812 815 818 820 823 826 828 831 833 836 838 840 842 844 846 848 849 851 853 854 856 857 858 860 861 862 862 863 864 866 867 868 869 869 870 871 872 873 873 874 875 876 877 877 878 878 879 879 879 880 881 881 882 883 883 883 883 883 884 884 884
776 777 782 779 773 772 767 767 766 768 770 762 766 780 780 777 776 769 766 768 770 775 781 782 785 787 789 792 794 796 798 800 803 804 805 808 811 813 816 818 821 824 827 830 833 835 837 839 841 843 845 847 848 850 852 854 855 856 858 859 860 861 862 863 864 866 867 868 869 869 870 871 872 873 873 874 875 876 877 877 878 878 879 879 879 880 881 882 882 883 883 883 884 884 884 884 884
778 778 783 783 780 776 763 762 764 767 768 758 769 792 786 773 770 765 764 768 772 778 781 782 785 786 789 791 793 795 796 798 799 801 804 807 810 812 814 817 820 822 825 829 832 834 836 838 840 842 844 846 847 850 851 853 854 856 857 859 860 861 862 863 864 866 867 868 869 870 870 871 872 873 873 874 875 876 876 877 878 878 878 879 879 880 881 882 882 883 883 884 884 884 884 884 884
780 782 784 785 789 779 761 760 764 767 766 755 771 795 784 767 766 763 762 766 771 778 780 781 784 785 787 789 792 794 794 796 797 800 803 805 808 811 813 816 819 822 824 826 829 832 835 837 839 841 842 844 846 848 850 852 853 855 856 858 859 860 862 863 864 866 867 868 869 869 870 871 872 873 873 874 875 876 877 877 878 878 878 879 879 880 881 882 882 883 883 884 884 884 884 884 884
780 788 789 786 789 780 763 759 762 766 765 757 771 789 778 765 763 760 761 764 769 776 779 780 782 783 785 787 790 792 792 794 796 799 802 804 807 809 812 815 817 820 822 825 828 831 834 836 838 840 841 843 845 847 849 851 852 854 856 857 858 860 861 863 864 865 866 867 868 869 870 871 872 873 873 874 875 876 876 877 877 878 878 879 879 880 881 882 882 883 883 884 884 884 884 884 884
782 786 789 785 786 782 770 762 757 760 764 763 769 779 775 765 760 758 760 763 767 773 777 778 781 782 783 785 787 789 791 793 795 797 800 802 805 807 810 812 815 818 820 823 826 829 832 834 836 838 840 842 843 846 848 850 852 853 855 857 858 860 861 862 864 865 866 867 868 869 870 871 872 873 873 874 875 876 876 877 877 878 878 879 879 880 880 881 882 883 883 883 884 884 884 884 884
786 784 784 783 782 780 776 769 758 756 764 768 769 771 770 764 760 760 759 761 766 771 774 776 778 780 781 783 784 786 788 790 791 793 796 800 802 805 808 811 813 816 819 822 824 827 830 832 835 837 839 841 842 844 847 849 851 853 855 856 858 859 861 862 863 864 865 866 867 868 869 870 871 872 873 874 875 876 876 877 877 878 878 879 879 880 880 881 882 883 883 884 884 884 884 884 885
785 786 785 784 781 778 777 772 762 759 764 768 771 772 767 762 761 761 759 759 764 767 769 772 775 778 781 782 783 784 785 787 787 789 793 797 800 803 806 809 812 815 818 820 823 826 829 831 833 835 838 839 841 843 846 848 850 852 854 855 857 858 859 861 862 863 865 866 867 868 869 870 871 872 873 874 874 875 876 877 877 878 878 879 879 880 880 881 882 882 883 884 884 884 884 884 885
779 780 782 783 780 776 772 768 760 759 767 769 769 771 766 763 763 762 760 758 762 765 767 771 774 776 779 780 781 781 783 783 783 787 791 795 798 801 804 807 810 813 816 819 821 824 827 829 831 834 836 837 840 842 844 847 849 850 852 854 855 856 858 859 861 862 864 865 866 867 868 869 871 871 872 873 874 875 876 877 877 878 878 879 879 880 880 881 881 882 883 884 884 884 884 884 884
777 778 780 780 779 774 768 766 760 756 767 769 764 766 764 761 760 758 759 760 763 766 768 771 772 774 776 777 778 779 780 780 782 786 790 793 796 799 802 805 808 811 813 816 819 822 824 827 829 831 833 835 837 840 842 844 846 848 850 852 853 855 857 858 860 861 863 864 865 866 868 869 870 871 872 873 874 875 875 876 877 877 878 878 879 879 880 881 881 882 883 883 883 883 884 884 885
779 780 781 779 778 774 766 765 761 755 766 768 761 765 764 757 757 755 757 762 764 763 765 768 768 770 771 773 775 776 778 779 781 785 787 791 794 796 800 802 805 807 810 813 815 819 822 824 827 828 830 832 834 837 839 841 843 845 847 850 852 854 855 857 859 860 862 863 864 866 867 868 869 870 871 872 873 874 875 876 876 877 877 878 879 879 880 880 881 881 882 883 883 883 884 885 885
779 780 782 782 777 773 768 764 760 758 766 767 762 766 763 753 752 753 755 758 758 755 757 759 761 765 768 768 771 773 776 778 779 782 784 787 790 793 797 799 802 804 807 810 813 816 819 822 824 826 828 830 832 834 836 839 841 843 847 849 851 854 855 856 858 859 861 862 864 865 866 867 868 869 870 871 872 873 874 875 876 876 877 878 878 879 879 880 880 881 882 883 883 883 884 884 885
779 778 782 782 775 776 774 767 763 760 762 763 762 765 760 753 753 753 751 751 751 751 752 754 756 759 761 762 766 769 772 775 777 778 780 783 787 790 793 796 799 802 804 807 810 813 815 818 821 823 825 827 830 832 834 837 840 843 846 848 850 853 854 856 857 859 860 861 862 863 864 865 867 868 869 870 871 872 873 874 875 875 876 877 878 878 879 880 880 881 882 882 883 883 884 884 884
778 775 777 777 774 775 773 768 765 761 759 758 763 772 765 755 758 756 749 749 750 751 753 756 756 756 759 762 764 767 768 770 773 775 777 779 782 785 789 793 796 798 800 802 805 809 811 814 817 820 823 825 827 830 832 836 839 841 844 847 850 852 853 855 856 857 858 859 860 862 863 864 866 867 868 869 870 871 872 873 874 874 875 876 877 878 878 879 880 881 881 882 882 883 883 884 884
778 771 769 772 773 774 773 771 770 773 772 759 763 784 776 755 756 755 750 752 753 752 754 756 756 756 759 762 762 763 765 767 769 771 773 775 779 783 787 790 792 793 796 799 802 805 808 811 814 817 820 823 825 827 830 834 836 839 842 845 847 849 851 852 852 854 855 856 858 860 862 863 865 866 867 868 869 870 871 871 872 873 874 875 876 877 878 879 879 880 881 881 882 883 883 883 884
778 766 761 768 771 774 775 773 776 782 779 761 759 781 781 761 755 751 748 752 752 751 753 752 752 755 756 757 758 760 762 764 766 768 770 772 776 779 782 784 787 789 793 797 800 803 806 809 812 815 818 820 823 825 828 831 834 837 839 841 843 845 847 848 848 851 853 854 857 859 860 862 864 865 866 867 867 868 869 870 871 872 873 873 874 876 877 878 879 880 880 881 881 882 882 883 883
773 759 758 767 770 774 775 774 778 776 771 765 758 769 781 773 757 747 746 752 753 752 752 749 749 751 751 752 753 755 757 759 762 765 766 768 770 773 776 779 782 786 791 795 798 800 803 806 809 812 815 818 820 823 826 829 831 834 836 839 841 842 844 845 847 850 852 853 855 857 859 861 863 864 865 865 866 867 868 869 870 871 872 872 873 874 876 877 878 879 879 880 880 881 882 882 883
764 755 757 762 766 770 770 773 776 771 776 781 765 763 783 778 755 746 748 752 755 753 750 747 747 747 747 748 749 749 752 754 756 760 761 763 766 768 771 775 780 785 788 791 794 798 801 804 807 810 813 815 818 821 823 826 828 831 833 836 838 840 842 844 846 848 850 852 854 856 858 860 861 862 863 864 865 866 866 868 869 869 871 871 872 873 874 875 876 877 878 879 879 880 881 881 882
756 754 756 758 761 764 767 773 773 774 785 788 770 765 783 778 753 749 754 753 752 749 745 743 742 742 742 743 745 746 748 750 752 754 757 759 762 765 770 774 778 781 785 788 791 795 799 801 805 808 810 813 815 818 820 823 826 828 831 833 835 838 840 843 845 847 849 850 852 854 856 858 859 861 862 862 863 864 865 866 867 868 869 870 871 872 873 874 875 876 877 878 878 879 880 880 881
752 756 759 761 763 763 766 768 771 784 790 780 766 761 777 779 754 743 748 745 741 741 741 740 738 739 739 739 741 743 745 747 749 751 753 757 761 765 769 772 775 778 782 786 789 792 795 798 802 805 807 810 813 815 818 820 823 825 827 830 832 835 838 840 843 845 847 848 850 852 854 856 857 859 860 861 862 863 864 864 866 867 868 869 870 871 872 873 874 875 876 876 877 878 879 879 880
753 758 761 769 773 771 776 775 778 794 789 769 758 755 770 777 754 735 733 731 730 733 734 736 736 736 736 736 737 738 740 742 745 748 751 754 759 762 766 768 771 775 778 781 785 789 792 795 798 801 805 808 810 813 815 817 820 822 825 827 830 832 835 838 840 842 844 846 848 850 852 853 855 856 858 859 860 861 862 863 864 865 866 867 868 870 871 872 873 874 874 875 876 877 877 878 878
756 759 763 778 787 787 793 791 787 789 779 760 753 756 765 761 741 730 728 725 725 724 723 725 728 730 730 731 731 732 734 737 740 744 748 750 753 756 759 763 767 770 774 777 781 785 788 791 794 798 801 804 807 810 812 815 817 819 822 824 827 830 832 835 837 839 841 843 846 847 849 851 852 854 855 856 858 859 860 861 862 863 864 866 867 868 869 870 872 872 873 874 875 875 876 876 877
756 759 765 779 789 798 802 794 786 785 774 757 750 759 764 751 731 723 721 721 719 716 716 717 718 722 724 724 725 727 729 732 735 738 742 745 747 749 753 757 761 765 769 773 777 781 784 787 791 794 797 800 804 807 809 812 814 816 819 821 824 827 830 832 834 837 839 841 843 845 847 849 850 851 852 854 855 857 859 860 861 862 863 864 865 867 868 869 870 871 872 872 873 874 875 875 876
751 748 754 765 771 783 790 785 784 783 772 759 756 763 761 748 730 714 709 710 709 711 711 711 713 714 716 718 720 724 726 728 730 733 736 738 740 744 748 753 756 760 764 769 773 776 779 783 786 790 794 797 801 804 806 809 811 814 816 819 822 824 827 829 832 834 836 838 841 843 845 846 848 849 850 852 853 855 857 858 859 860 861 862 863 865 866 867 868 869 870 871 872 872 873 874 874
745 739 750 758 752 758 768 769 767 770 771 764 759 755 742 730 720 708 707 707 704 707 707 707 711 710 712 717 718 720 722 723 726 729 731 733 736 740 744 748 752 756 760 764 767 770 773 778 782 786 790 793 797 800 803 806 808 811 814 816 819 821 824 827 829 831 833 836 838 840 842 844 845 847 848 850 851 853 855 856 857 858 859 860 861 863 864 865 866 867 868 869 870 871 871 872 873
741 743 750 744 735 744 761 767 760 764 776 764 751 748 737 729 721 706 707 712 706 707 707 706 708 707 711 714 714 715 717 717 720 722 725 727 731 735 739 743 747 750 754 757 760 764 768 773 778 782 787 790 794 797 800 803 806 808 811 813 816 819 821 824 826 828 831 833 835 838 840 842 843 845 846 848 849 851 852 854 855 857 857 859 860 861 862 863 864 865 866 867 868 869 870 870 871
741 745 740 733 738 743 753 768 769 772 779 762 747 748 742 740 732 709 705 713 709 706 706 704 705 707 710 710 708 710 709 711 713 714 717 721 724 729 733 738 741 743 747 751 755 760 765 770 774 778 783 786 790 794 797 800 803 805 808 810 813 816 818 821 823 825 828 830 832 835 837 839 840 842 844 846 847 849 850 851 853 854 855 857 858 859 860 861 862 863 864 865 866 867 868 869 869
734 734 725 732 752 755 754 767 771 772 776 764 752 749 739 734 727 712 709 710 706 704 704 703 704 705 706 704 704 705 704 707 709 710 714 716 719 724 728 732 736 739 744 748 752 757 762 766 770 774 778 781 786 790 793 797 799 802 805 807 810 813 815 818 821 823 825 827 829 832 834 836 838 840 841 843 845 846 848 849 850 852 853 854 856 857 858 859 860 861 862 863 864 865 866 867 867
727 729 725 728 739 745 747 752 755 762 769 765 758 753 739 722 713 710 709 704 699 700 700 701 701 700 699 699 699 701 702 704 705 706 709 711 714 717 721 725 729 734 739 744 749 754 757 762 766 771 774 778 782 785 789 792 795 799 802 804 807 809 812 815 818 820 822 824 826 828 830 833 835 837 838 840 842 844 845 846 848 849 851 852 853 855 856 857 858 859 860 861 862 863 864 864 865
733 736 736 731 730 732 737 739 738 746 758 760 760 756 734 709 701 703 702 698 696 694 695 697 696 693 692 692 693 695 697 698 699 700 702 704 707 710 715 720 725 730 736 741 746 750 754 759 762 766 770 773 777 781 784 787 791 795 798 800 803 806 809 812 815 817 819 821 823 825 827 830 831 833 835 837 839 841 842 844 845 847 848 849 850 852 854 855 856 857 857 859 860 861 862 862 863
742 741 737 734 733 734 743 747 735 732 742 746 751 753 729 700 694 696 692 691 689 687 688 689 689 688 687 687 688 689 691 692 693 694 696 698 701 705 710 715 721 728 732 735 740 745 749 753 757 761 765 768 772 776 779 783 787 791 793 796 800 803 806 809 812 814 816 818 820 822 824 826 828 830 832 834 836 838 840 841 842 844 845 847 848 849 851 852 853 854 855 856 857 858 860 860 860